Blacksburg, VA

1:19 PM EDT on March 30, 2017 (GMT -0400)
Virginia Tech

Weather History for KBCB - November, 2014

Change the Weather History Date:

Saturday, November 1, 2014

  Actual Average Record
Temperature  
Mean Temperature 39 °F 48 °F  
Max Temperature 44 °F 61 °F 82 °F (2004)
Min Temperature 34 °F 35 °F 24 °F (1975)
Degree Days  
Heating Degree Days 26 17  
Month to date heating degree days 26 17  
Since 1 July heating degree days 436 544  
Cooling Degree Days 0 0  
Month to date cooling degree days 0 0  
Year to date cooling degree days 609 573  
Moisture  
Dew Point 37 °F    
Average Humidity 88    
Maximum Humidity 100    
Minimum Humidity 76    
Precipitation  
Precipitation 0.33 in 0.09 in 0.53 in (1972)
Month to date precipitation 0.33 0.09  
Year to date precipitation 34.25 35.16  
Snow  
Snow T in - - ()
Month to date snowfall T  
Since 1 July snowfall T  
Since 1 September snowfall T  
Snow Depth 0.00 in    
Sea Level Pressure  
Sea Level Pressure 29.89 in    
Wind  
Wind Speed 8 mph (NNW)    
Max Wind Speed 18 mph    
Max Gust Speed 28 mph    
Visibility 8 miles    
Events Rain    
T = Trace of Precipitation, MM = Missing Value Source: NWS Daily Summary

Daily Weather History Graph

Daily Weather History Graph

Search for Another Location

Airport or City:

Trip Planner

Search our weather history database for the weather conditions in past years. The results will help you decide how hot, cold, wet, or windy it might be!

Date:

Astronomy

Nov. 01, 2014 Rise Set
Actual Time 7:46 AM EDT 6:23 PM EDT
Civil Twilight 7:19 AM EDT 6:50 PM EDT
Nautical Twilight 6:48 AM EDT 7:21 PM EDT
Astronomical Twilight 6:17 AM EDT 7:51 PM EDT
Moon 3:09 PM EDT (11/1) 1:47 AM EDT (11/1)
Length of Visible Light 11h 31m
Length of Day
10h 37m
Waxing Gibbous, 67% of the Moon is Illuminated
Nov 1
Waxing Gibbous
Nov 6
Full
Nov 14
Last Quarter
Nov 22
New
Nov 29
First Quarter

Hourly Weather History & Observations

Time (EDT) Temp. Windchill Dew Point Humidity Pressure Visibility Wind Dir Wind Speed Gust Speed Precip Events Conditions
12:15 AM 39.2 °F - 39.2 °F 100% 29.81 in 10.0 mi Calm Calm - N/A   Drizzle
12:35 AM 39.2 °F 37.0 °F 39.2 °F 100% 29.81 in 10.0 mi West 3.5 mph - N/A   Drizzle
12:55 AM 39.2 °F 37.0 °F 39.2 °F 100% 29.80 in 7.0 mi WNW 3.5 mph - N/A   Drizzle
1:15 AM 39.2 °F - 39.2 °F 100% 29.79 in 7.0 mi Calm Calm - N/A Rain Rain
1:35 AM 39.2 °F - 39.2 °F 100% 29.79 in 7.0 mi Calm Calm - N/A Rain Light Rain
1:55 AM 39.2 °F - 39.2 °F 100% 29.79 in 5.0 mi Calm Calm - N/A Rain Rain
2:15 AM 39.2 °F - 39.2 °F 100% 29.79 in 4.0 mi Calm Calm - N/A Rain Rain
2:35 AM 39.2 °F - 39.2 °F 100% 29.79 in 4.0 mi Calm Calm - N/A Rain Rain
2:55 AM 39.2 °F - 39.2 °F 100% 29.79 in 5.0 mi Calm Calm - N/A Rain Rain
3:15 AM 37.4 °F 33.8 °F 37.4 °F 100% 29.79 in 4.0 mi North 4.6 mph - N/A Rain Rain
3:35 AM 37.4 °F - 37.4 °F 100% 29.79 in 4.0 mi Calm Calm - N/A Rain Rain
3:55 AM 37.4 °F 34.9 °F 37.4 °F 100% 29.79 in 5.0 mi North 3.5 mph - N/A Rain Rain
4:15 AM 37.4 °F - 37.4 °F 100% 29.79 in 4.0 mi Calm Calm - N/A Rain Rain
4:35 AM 37.4 °F 33.8 °F 37.4 °F 100% 29.78 in 5.0 mi NNW 4.6 mph - N/A Rain Rain
4:55 AM 37.4 °F 33.8 °F 37.4 °F 100% 29.78 in 7.0 mi North 4.6 mph - N/A Rain Rain
5:15 AM 37.4 °F - 37.4 °F 100% 29.79 in 7.0 mi Calm Calm - N/A   Drizzle
5:35 AM 37.4 °F - 37.4 °F 100% 29.79 in 7.0 mi Calm Calm - N/A Rain Light Rain
5:55 AM 37.4 °F - 37.4 °F 100% 29.80 in 7.0 mi Calm Calm - N/A Rain Rain
6:15 AM 37.4 °F - 37.4 °F 100% 29.80 in 7.0 mi Calm Calm - N/A Rain Rain
6:35 AM 37.4 °F - 37.4 °F 100% 29.81 in 7.0 mi Calm Calm - N/A   Drizzle
6:55 AM 37.4 °F - 37.4 °F 100% 29.82 in 5.0 mi Calm Calm - N/A Rain Light Rain
7:15 AM 37.4 °F - 37.4 °F 100% 29.82 in 4.0 mi Calm Calm - N/A Rain Rain
7:35 AM 35.6 °F - 35.6 °F 100% 29.83 in 7.0 mi Calm Calm - N/A Rain Rain
7:55 AM 37.4 °F - 37.4 °F 100% 29.83 in 10.0 mi Calm Calm - N/A Rain Light Rain
8:15 AM 37.4 °F 33.8 °F 37.4 °F 100% 29.83 in 5.0 mi NW 4.6 mph - N/A   Drizzle
8:35 AM 37.4 °F 33.8 °F 37.4 °F 100% 29.84 in 7.0 mi NW 4.6 mph - N/A   Drizzle
8:55 AM 37.4 °F 33.8 °F 37.4 °F 100% 29.84 in 10.0 mi WNW 4.6 mph - N/A   Drizzle
9:15 AM 37.4 °F 33.8 °F 37.4 °F 100% 29.85 in 10.0 mi NW 4.6 mph - N/A   Light Drizzle
9:35 AM 39.2 °F 35.0 °F 39.2 °F 100% 29.85 in 10.0 mi NW 5.8 mph - N/A   Light Drizzle
9:55 AM 39.2 °F 35.0 °F 39.2 °F 100% 29.86 in 10.0 mi NNW 5.8 mph - N/A   Drizzle
10:15 AM 41.0 °F 36.4 °F 41.0 °F 100% 29.86 in 10.0 mi NW 6.9 mph - N/A   Drizzle
10:35 AM 41.0 °F 37.1 °F 41.0 °F 100% 29.86 in 10.0 mi WNW 5.8 mph - N/A   Light Drizzle
10:55 AM 41.0 °F 37.1 °F 41.0 °F 100% 29.87 in 10.0 mi North 5.8 mph - N/A   Light Drizzle
11:15 AM 42.8 °F 35.8 °F 39.2 °F 87% 29.87 in 10.0 mi North 13.8 mph 18.4 mph N/A   Light Drizzle
11:35 AM 42.8 °F 38.6 °F 39.2 °F 87% 29.88 in 10.0 mi North 6.9 mph - N/A   Overcast
11:55 AM 42.8 °F 38.0 °F 39.2 °F 87% 29.88 in 10.0 mi North 8.1 mph - N/A   Light Drizzle
12:15 PM 42.8 °F 37.5 °F 39.2 °F 87% 29.88 in 10.0 mi North 9.2 mph 18.4 mph N/A   Overcast
12:35 PM 42.8 °F 37.0 °F 39.2 °F 87% 29.88 in 10.0 mi North 10.4 mph 19.6 mph N/A   Overcast
12:55 PM 42.8 °F 34.5 °F 37.4 °F 81% 29.88 in 10.0 mi North 18.4 mph 25.3 mph N/A   Overcast
1:15 PM 42.8 °F 35.4 °F 37.4 °F 81% 29.88 in 10.0 mi NNW 15.0 mph 18.4 mph N/A   Overcast
1:55 PM 42.8 °F 34.8 °F 37.4 °F 81% 29.89 in 10.0 mi North 17.3 mph 24.2 mph N/A   Overcast
2:15 PM 42.8 °F 35.8 °F 37.4 °F 81% 29.89 in 10.0 mi North 13.8 mph 23.0 mph N/A   Drizzle
2:35 PM 42.8 °F 35.8 °F 37.4 °F 81% 29.89 in 10.0 mi NNW 13.8 mph 23.0 mph N/A Rain Rain
2:55 PM 44.6 °F 36.9 °F 39.2 °F 81% 29.89 in 10.0 mi NNW 18.4 mph 24.2 mph N/A   Overcast
3:15 PM 44.6 °F 37.4 °F 37.4 °F 76% 29.89 in 10.0 mi NNW 16.1 mph 25.3 mph N/A   Overcast
3:35 PM 44.6 °F 37.4 °F 37.4 °F 76% 29.89 in 10.0 mi NNW 16.1 mph 25.3 mph N/A   Overcast
3:55 PM 44.6 °F 38.1 °F 37.4 °F 76% 29.90 in 10.0 mi NNW 13.8 mph 25.3 mph N/A   Overcast
4:15 PM 42.8 °F 35.1 °F 37.4 °F 81% 29.90 in 10.0 mi NNW 16.1 mph 21.9 mph N/A   Overcast
4:35 PM 44.6 °F 37.2 °F 37.4 °F 76% 29.90 in 10.0 mi NW 17.3 mph 26.5 mph N/A   Overcast
4:55 PM 44.6 °F 37.4 °F 37.4 °F 76% 29.90 in 10.0 mi NNW 16.1 mph 21.9 mph N/A   Mostly Cloudy
5:15 PM 44.6 °F 36.4 °F 37.4 °F 76% 29.91 in 10.0 mi NNW 20.7 mph 26.5 mph N/A   Mostly Cloudy
5:35 PM 41.0 °F 33.1 °F 39.2 °F 93% 29.93 in 5.0 mi NNW 15.0 mph 27.6 mph N/A   Drizzle
5:55 PM 42.8 °F 35.4 °F 37.4 °F 81% 29.94 in 10.0 mi NNW 15.0 mph 25.3 mph N/A   Scattered Clouds
6:15 PM 42.8 °F 34.5 °F 35.6 °F 76% 29.95 in 10.0 mi NNW 18.4 mph 26.5 mph N/A   Mostly Cloudy
6:35 PM 42.8 °F 35.1 °F 35.6 °F 76% 29.96 in 10.0 mi NNW 16.1 mph 26.5 mph N/A   Overcast
6:55 PM 42.8 °F 35.4 °F 37.4 °F 81% 29.97 in 10.0 mi NNW 15.0 mph 24.2 mph N/A   Overcast
7:15 PM 41.0 °F 33.9 °F 37.4 °F 87% 29.98 in 10.0 mi NW 12.7 mph 17.3 mph N/A   Drizzle
7:35 PM 41.0 °F 33.5 °F 35.6 °F 81% 29.99 in 10.0 mi NNW 13.8 mph 27.6 mph N/A   Overcast
7:55 PM 41.0 °F 33.5 °F 35.6 °F 81% 30.00 in 10.0 mi NW 13.8 mph 19.6 mph N/A   Overcast
8:15 PM 39.2 °F 30.8 °F 35.6 °F 87% 30.00 in 10.0 mi NW 15.0 mph 23.0 mph N/A   Mostly Cloudy
8:35 PM 39.2 °F 29.8 °F 35.6 °F 87% 30.01 in 10.0 mi NW 18.4 mph 27.6 mph N/A   Mostly Cloudy
8:55 PM 39.2 °F 31.6 °F 33.8 °F 81% 30.02 in 10.0 mi NNW 12.7 mph 23.0 mph N/A   Overcast
9:15 PM 39.2 °F 29.6 °F 33.8 °F 81% 30.02 in 10.0 mi NW 19.6 mph 26.5 mph N/A   Overcast
9:35 PM 39.2 °F 31.2 °F 33.8 °F 81% 30.03 in 10.0 mi NW 13.8 mph 19.6 mph N/A   Overcast
9:55 PM 39.2 °F 33.6 °F 33.8 °F 81% 30.04 in 10.0 mi NW 8.1 mph 19.6 mph N/A   Overcast
10:15 PM 39.2 °F 30.8 °F 33.8 °F 81% 30.05 in 10.0 mi NW 15.0 mph 18.4 mph N/A   Overcast
10:35 PM 37.4 °F 32.1 °F 33.8 °F 87% 30.05 in 10.0 mi WNW 6.9 mph - N/A Rain Light Rain
10:55 PM 37.4 °F 32.1 °F 35.6 °F 93% 30.06 in 7.0 mi NW 6.9 mph - N/A Rain Light Rain
11:15 PM 37.4 °F 31.4 °F 33.8 °F 87% 30.06 in 7.0 mi WNW 8.1 mph 16.1 mph N/A   Overcast
11:35 PM 35.6 °F 25.9 °F 32.0 °F 87% 30.06 in 10.0 mi NW 16.1 mph 24.2 mph N/A   Overcast
11:55 PM 35.6 °F 28.0 °F 30.2 °F 81% 30.07 in 10.0 mi NW 10.4 mph 18.4 mph N/A   Overcast